Location: Kumla
(59.1265°N, 15.1401°E)
Time: 17:16:47
(UTC+01:00)

A-11 Canister half - Pass Details

Date: 12 December 2023
Orbit: 1526 x 1682 km, 47.3° (Epoch: 24 February)

Event Time Altitude Azimuth Distance (km) Brightness Sun altitude
Rises 22:46:31 0° 277° (W) 4,937 11.9 -52.1°
Reaches altitude 10° 22:50:19 10° 266° (W) 3,939 11.2 -52.3°
Enters shadow 22:50:44 11° 265° (W) 3,841 11.1 -52.3°
Maximum altitude 22:58:09 27° 215° (SW) 2,799 - -52.7°
Drops below altitude 10° 23:05:50 10° 163° (SSE) 3,857 - -53.0°
Sets 23:09:32 0° 152° (SSE) 4,817 - -53.2°
